Вернуться в каталог

STARLINK-4150

АктивенСвязьVLEO
NORAD 53134·PAYLOAD·🇺🇸 United States

Запущен Jul 17, 2022 с Cape Canaveral Space Force Station

Loading…

Ближайшие Пролёты (ближайшие 24 часа)

TLE

СвежийSource: CelesTrak SupGP

Эпоха: Sep 15, 2026, 01:29 UTC

1 53134C 22083C   26258.06229167 -.00032011  00000+0 -94599-3 0  2582
2 53134  53.1593  31.0319 0001161  80.7818 170.1693 15.34399417    16

Отслеживайте STARLINK-4150 в реальном времени с AllMySat

Download on the App Store